Weather History for Raton, NM

Change the Weather History Date:

Thursday, February 7, 2013

  Actual Average (KTAD) Record (KTAD)
Temperature  
Mean Temperature 38 °F 34 °F  
Max Temperature 48 °F 48 °F 73 °F (1963)
Min Temperature 28 °F 19 °F -14 °F (1989)
Degree Days  
Heating Degree Days 27 32  
Month to date heating degree days 224  
Since 1 July heating degree days 3506  
Cooling Degree Days 0 0  
Month to date cooling degree days 0  
Year to date cooling degree days 0  
Moisture  
Dew Point 20 °F    
Average Humidity 51    
Maximum Humidity 73    
Minimum Humidity 29    
Precipitation  
Precipitation 0.00 in 0.01 in 0.33 in (1997)
Month to date precipitation 0.10  
Year to date precipitation 0.50  
Sea Level Pressure  
Sea Level Pressure 30.05 in    
Wind  
Wind Speed 12 mph (WNW)    
Max Wind Speed 22 mph    
Max Gust Speed 26 mph    
Visibility 10 miles    
Events      
T = Trace of Precipitation, MM = Missing Value Source: NWS Daily Summary

Daily Weather History Graph

Daily Weather History Graph

Search for Another Location

Airport:

Trip Planner

Search our weather history database for the weather conditions in past years. The results will help you decide how hot, cold, wet, or windy it might be!

Date:

Astronomy

Feb. 07, 2013 Rise Set
Actual Time 6:54 AM MST 5:30 PM MST
Civil Twilight 6:27 AM MST 5:57 PM MST
Nautical Twilight 5:56 AM MST 6:27 PM MST
Astronomical Twilight 5:26 AM MST 6:58 PM MST
Moon 4:33 AM MST (2/7) 2:59 PM MST (2/7)
Length of Visible Light 11h 29m
Length of Day
10h 36m
Waning Crescent, 8% of the Moon is Illuminated
Feb 7
Waning Crescent
Feb 10
New
Feb 17
First Quarter
Feb 25
Full
Mar 4
Last Quarter

Hourly Weather History & Observations

Time (MST) Temp. Windchill Dew Point Humidity Pressure Visibility Wind Dir Wind Speed Gust Speed Precip Events Conditions
12:53 AM 39.0 °F 30.6 °F 25.0 °F 57% 29.87 in 10.0 mi NNE 15.0 mph 25.3 mph N/A   Overcast
1:53 AM 36.0 °F 27.5 °F 27.0 °F 70% 29.87 in 10.0 mi NNE 12.7 mph 24.2 mph N/A   Scattered Clouds
2:53 AM 36.0 °F 27.1 °F 28.0 °F 73% 29.88 in 10.0 mi NNE 13.8 mph - N/A   Overcast
3:53 AM 35.1 °F 23.5 °F 26.1 °F 70% 29.91 in 10.0 mi North 21.9 mph 26.5 mph N/A   Overcast
4:53 AM 32.0 °F 19.8 °F 24.1 °F 73% 29.96 in 10.0 mi North 20.7 mph - N/A   Clear
5:53 AM 33.1 °F 21.9 °F 25.0 °F 72% 29.99 in 10.0 mi North 18.4 mph - N/A   Overcast
6:53 AM 33.1 °F 27.7 °F 24.1 °F 70% 30.05 in 10.0 mi North 5.8 mph - N/A   Overcast
7:53 AM 35.1 °F 26.9 °F 24.1 °F 64% 30.06 in 10.0 mi North 11.5 mph - N/A   Scattered Clouds
8:53 AM 37.9 °F 30.0 °F 23.0 °F 55% 30.08 in 10.0 mi North 12.7 mph - N/A   Partly Cloudy
9:53 AM 37.9 °F 33.5 °F 23.0 °F 55% 30.09 in 10.0 mi Variable 5.8 mph - N/A   Clear
10:53 AM 42.1 °F 36.6 °F 19.9 °F 41% 30.10 in 10.0 mi ENE 9.2 mph - N/A   Partly Cloudy
11:53 AM 43.0 °F 38.2 °F 19.0 °F 38% 30.08 in 10.0 mi ESE 8.1 mph - N/A   Clear
12:53 PM 46.0 °F 43.9 °F 19.0 °F 34% 30.04 in 10.0 mi Variable 4.6 mph - N/A   Clear
1:53 PM 46.0 °F 43.1 °F 18.0 °F 33% 30.05 in 10.0 mi SW 5.8 mph - N/A   Clear
2:53 PM 46.9 °F - 17.1 °F 30% 30.03 in 10.0 mi Variable 5.8 mph - N/A   Clear
3:53 PM 48.0 °F - 17.1 °F 29% 30.04 in 10.0 mi South 10.4 mph - N/A   Clear
4:53 PM 45.0 °F 40.1 °F 16.0 °F 31% 30.07 in 10.0 mi South 9.2 mph - N/A   Clear
5:53 PM 37.9 °F 32.1 °F 12.9 °F 36% 30.12 in 10.0 mi SSW 8.1 mph - N/A   Clear
6:53 PM 37.9 °F 34.4 °F 14.0 °F 38% 30.12 in 10.0 mi SSW 4.6 mph - N/A   Clear
7:53 PM 35.1 °F 28.6 °F 14.0 °F 42% 30.16 in 10.0 mi SW 8.1 mph - N/A   Clear
8:53 PM 30.9 °F 23.5 °F 14.0 °F 50% 30.17 in 10.0 mi WSW 8.1 mph - N/A   Clear
9:53 PM 28.9 °F 21.1 °F 14.0 °F 54% 30.20 in 10.0 mi WSW 8.1 mph - N/A   Clear
10:53 PM 28.9 °F 22.8 °F 14.0 °F 54% 30.17 in 10.0 mi SW 5.8 mph - N/A   Clear
11:53 PM 28.0 °F 24.2 °F 14.0 °F 56% 30.17 in 10.0 mi WSW 3.5 mph - N/A   Clear